Time,TemperatureF,DewpointF,PressureIn,WindDirection,WindDirectionDegrees,WindSpeedMPH,WindSpeedGustMPH,Humidity,HourlyPrecipIn,Conditions,Clouds,dailyrainin,SolarRadiationWatts/m^2,SoftwareType,DateUTC
2014-02-04 00:01:00,6.1,2.8,30.34,ESE,116,0.0,0.0,86,0.00,BKN,,0.00,0.0,WeatherDisplay:10.37,2014-02-04 05:01:00,
2014-02-04 00:06:00,6.0,2.7,30.34,ESE,116,0.0,0.0,86,0.00,BKN,,0.00,0.0,WeatherDisplay:10.37,2014-02-04 05:06:00,
2014-02-04 00:11:00,6.0,2.7,30.34,ESE,116,0.0,0.0,86,0.00,BKN,,0.00,0.0,WeatherDisplay:10.37,2014-02-04 05:11:00,
2014-02-04 00:16:00,6.0,2.7,30.35,ESE,116,0.0,0.0,86,0.00,BKN,,0.00,0.0,WeatherDisplay:10.37,2014-02-04 05:16:00,
2014-02-04 00:21:00,6.0,2.7,30.35,ESE,116,0.0,0.0,86,0.00,BKN,,0.00,0.0,WeatherDisplay:10.37,2014-02-04 05:21:00,
2014-02-04 00:26:00,5.9,2.6,30.35,ESE,116,0.0,0.0,86,0.00,BKN,,0.00,0.0,WeatherDisplay:10.37,2014-02-04 05:26:00,
2014-02-04 00:31:00,5.9,2.6,30.35,ESE,116,0.0,0.0,86,0.00,SCT,,0.00,0.0,WeatherDisplay:10.37,2014-02-04 05:31:00,
2014-02-04 00:36:00,5.9,2.9,30.36,ESE,116,0.0,0.0,87,0.00,SCT,,0.00,0.0,WeatherDisplay:10.37,2014-02-04 05:36:00,
2014-02-04 00:41:00,5.9,2.6,30.36,ESE,116,1.2,1.2,86,0.00,SCT,,0.00,0.0,WeatherDisplay:10.37,2014-02-04 05:41:00,
2014-02-04 00:46:00,5.8,2.5,30.36,ESE,116,0.0,0.0,86,0.00,SCT,,0.00,0.0,WeatherDisplay:10.37,2014-02-04 05:46:00,
2014-02-04 00:51:00,5.7,2.4,30.36,ESE,116,0.0,0.0,86,0.00,SCT,,0.00,0.0,WeatherDisplay:10.37,2014-02-04 05:51:00,
2014-02-04 00:56:00,5.6,2.3,30.36,ESE,116,0.0,0.0,86,0.00,SCT,,0.00,0.0,WeatherDisplay:10.37,2014-02-04 05:56:00,
2014-02-04 01:01:00,5.4,2.1,30.36,ESE,116,0.0,0.0,86,0.00,SCT,,0.00,0.0,WeatherDisplay:10.37,2014-02-04 06:01:00,
2014-02-04 01:06:00,5.2,1.7,30.36,ESE,116,0.0,0.0,85,0.00,SCT,,0.00,0.0,WeatherDisplay:10.37,2014-02-04 06:06:00,
2014-02-04 01:11:00,4.8,1.0,30.36,ESE,116,0.0,0.0,84,0.00,SCT,,0.00,0.0,WeatherDisplay:10.37,2014-02-04 06:11:00,
2014-02-04 01:16:00,4.6,0.8,30.36,ESE,116,0.0,0.0,84,0.00,FEW,,0.00,0.0,WeatherDisplay:10.37,2014-02-04 06:16:00,
2014-02-04 01:21:00,4.4,0.6,30.36,ESE,116,0.0,0.0,84,0.00,FEW,,0.00,0.0,WeatherDisplay:10.37,2014-02-04 06:21:00,
2014-02-04 01:26:00,4.3,0.8,30.36,ESE,116,0.0,0.0,85,0.00,FEW,,0.00,0.0,WeatherDisplay:10.37,2014-02-04 06:26:00,
2014-02-04 01:31:00,4.2,0.7,30.36,ESE,116,0.0,0.0,85,0.00,FEW,,0.00,0.0,WeatherDisplay:10.37,2014-02-04 06:31:00,
2014-02-04 01:36:00,4.1,0.6,30.36,ESE,116,0.0,0.0,85,0.00,FEW,,0.00,0.0,WeatherDisplay:10.37,2014-02-04 06:36:00,
2014-02-04 01:41:00,3.6,-0.2,30.37,ESE,116,1.0,1.0,84,0.00,FEW,,0.00,0.0,WeatherDisplay:10.37,2014-02-04 06:41:00,
2014-02-04 01:46:00,3.5,0.0,30.37,ESE,116,0.0,0.0,85,0.00,FEW,,0.00,0.0,WeatherDisplay:10.37,2014-02-04 06:46:00,
2014-02-04 01:51:00,3.4,-0.1,30.36,ESE,116,0.0,0.0,85,0.00,FEW,,0.00,0.0,WeatherDisplay:10.37,2014-02-04 06:51:00,
2014-02-04 01:56:00,3.3,-0.2,30.36,ESE,116,0.0,0.0,85,0.00,FEW,,0.00,0.0,WeatherDisplay:10.37,2014-02-04 06:56:00,
2014-02-04 02:01:00,3.3,-0.2,30.37,ESE,116,0.0,0.0,85,0.00,FEW,,0.00,0.0,WeatherDisplay:10.37,2014-02-04 07:01:00,
2014-02-04 02:06:00,3.3,0.1,30.36,ESE,116,0.0,0.0,86,0.00,FEW,,0.00,0.0,WeatherDisplay:10.37,2014-02-04 07:06:00,
2014-02-04 02:11:00,3.3,0.1,30.36,ESE,116,0.0,0.0,86,0.00,FEW,,0.00,0.0,WeatherDisplay:10.37,2014-02-04 07:11:00,
2014-02-04 02:16:00,3.2,0.0,30.36,ESE,116,0.0,0.0,86,0.00,SCT,,0.00,0.0,WeatherDisplay:10.37,2014-02-04 07:16:00,
2014-02-04 02:21:00,3.2,0.0,30.36,ESE,116,0.0,0.0,86,0.00,SCT,,0.00,0.0,WeatherDisplay:10.37,2014-02-04 07:21:00,
2014-02-04 02:26:00,3.2,0.0,30.36,ESE,116,0.0,0.0,86,0.00,SCT,,0.00,0.0,WeatherDisplay:10.37,2014-02-04 07:26:00,
2014-02-04 02:31:00,3.2,0.0,30.36,ESE,116,0.0,0.0,86,0.00,SCT,,0.00,0.0,WeatherDisplay:10.37,2014-02-04 07:31:00,
2014-02-04 02:36:00,3.3,0.1,30.36,ESE,116,0.0,0.0,86,0.00,SCT,,0.00,0.0,WeatherDisplay:10.37,2014-02-04 07:36:00,
2014-02-04 02:41:00,3.4,0.2,30.36,ESE,116,0.0,0.0,86,0.00,SCT,,0.00,0.0,WeatherDisplay:10.37,2014-02-04 07:41:00,
2014-02-04 02:46:00,3.5,0.5,30.36,ESE,116,0.0,0.0,87,0.00,SCT,,0.00,0.0,WeatherDisplay:10.37,2014-02-04 07:46:00,
2014-02-04 02:51:00,3.5,0.5,30.35,ESE,116,0.0,0.0,87,0.00,SCT,,0.00,0.0,WeatherDisplay:10.37,2014-02-04 07:51:00,
2014-02-04 02:56:00,3.6,0.6,30.35,ESE,116,0.0,0.0,87,0.00,SCT,,0.00,0.0,WeatherDisplay:10.37,2014-02-04 07:56:00,
2014-02-04 03:01:00,3.7,0.7,30.36,ESE,116,0.0,0.0,87,0.00,SCT,,0.00,0.0,WeatherDisplay:10.37,2014-02-04 08:01:00,
2014-02-04 03:06:00,3.7,0.7,30.37,ESE,116,0.0,0.0,87,0.00,SCT,,0.00,0.0,WeatherDisplay:10.37,2014-02-04 08:06:00,
2014-02-04 03:11:00,3.7,0.7,30.37,ESE,116,0.0,0.0,87,0.00,SCT,,0.00,0.0,WeatherDisplay:10.37,2014-02-04 08:11:00,
2014-02-04 03:16:00,3.6,0.4,30.37,ESE,116,0.0,0.0,86,0.00,BKN,,0.00,0.0,WeatherDisplay:10.37,2014-02-04 08:16:00,
2014-02-04 03:21:00,3.4,0.2,30.37,ESE,116,0.0,0.0,86,0.00,BKN,,0.00,0.0,WeatherDisplay:10.37,2014-02-04 08:21:00,
2014-02-04 03:26:00,3.3,0.1,30.37,ESE,116,0.0,0.0,86,0.00,BKN,,0.00,0.0,WeatherDisplay:10.37,2014-02-04 08:26:00,
2014-02-04 03:31:00,3.2,-0.3,30.37,ESE,116,0.0,0.0,85,0.00,BKN,,0.00,0.0,WeatherDisplay:10.37,2014-02-04 08:31:00,
2014-02-04 03:37:00,3.1,-0.4,30.37,ESE,116,0.0,0.0,85,0.00,BKN,,0.00,0.0,WeatherDisplay:10.37,2014-02-04 08:37:00,
2014-02-04 03:42:00,3.1,-0.4,30.37,ESE,116,0.0,0.0,85,0.00,BKN,,0.00,0.0,WeatherDisplay:10.37,2014-02-04 08:42:00,
2014-02-04 03:47:00,3.0,-0.5,30.38,ESE,116,0.0,0.0,85,0.00,OVC,,0.00,0.0,WeatherDisplay:10.37,2014-02-04 08:47:00,
2014-02-04 03:52:00,3.0,-0.2,30.38,ESE,116,0.0,0.0,86,0.00,OVC,,0.00,0.0,WeatherDisplay:10.37,2014-02-04 08:52:00,
2014-02-04 03:57:00,3.1,-0.1,30.38,ESE,116,0.0,0.0,86,0.00,OVC,,0.00,0.0,WeatherDisplay:10.37,2014-02-04 08:57:00,
2014-02-04 04:02:00,3.1,-0.1,30.38,ESE,116,0.0,0.0,86,0.00,OVC,,0.00,0.0,WeatherDisplay:10.37,2014-02-04 09:02:00,
2014-02-04 04:07:00,3.2,0.0,30.38,ESE,116,0.0,0.0,86,0.00,OVC,,0.00,0.0,WeatherDisplay:10.37,2014-02-04 09:07:00,
2014-02-04 04:12:00,3.4,0.4,30.38,ESE,116,0.0,0.0,87,0.00,OVC,,0.00,0.0,WeatherDisplay:10.37,2014-02-04 09:12:00,
2014-02-04 04:17:00,3.5,0.5,30.39,ESE,116,0.0,0.0,87,0.00,OVC,,0.00,0.0,WeatherDisplay:10.37,2014-02-04 09:17:00,
2014-02-04 04:22:00,3.7,0.9,30.39,ESE,116,0.0,0.0,88,0.00,OVC,,0.00,0.0,WeatherDisplay:10.37,2014-02-04 09:22:00,
2014-02-04 04:27:00,4.0,1.2,30.39,ESE,116,0.0,0.0,88,0.00,OVC,,0.00,0.0,WeatherDisplay:10.37,2014-02-04 09:27:00,
2014-02-04 04:32:00,4.2,1.4,30.40,ESE,116,0.0,0.0,88,0.00,-SN,,0.00,0.0,WeatherDisplay:10.37,2014-02-04 09:32:00,
2014-02-04 04:37:00,4.4,1.9,30.40,ESE,116,0.0,0.0,89,0.00,-SN,,0.00,0.0,WeatherDisplay:10.37,2014-02-04 09:37:00,
2014-02-04 04:42:00,4.7,2.2,30.40,ESE,116,0.0,0.0,89,0.00,-SN,,0.00,0.0,WeatherDisplay:10.37,2014-02-04 09:42:00,
2014-02-04 04:47:00,4.9,2.4,30.40,ESE,116,0.0,0.0,89,0.00,-SN,,0.00,0.0,WeatherDisplay:10.37,2014-02-04 09:47:00,
2014-02-04 04:52:00,5.2,2.7,30.40,ESE,116,0.0,0.0,89,0.00,-SN,,0.00,0.0,WeatherDisplay:10.37,2014-02-04 09:52:00,
2014-02-04 04:57:00,5.5,3.2,30.40,ESE,116,0.0,0.0,90,0.00,-SN,,0.00,0.0,WeatherDisplay:10.37,2014-02-04 09:57:00,
2014-02-04 05:02:00,5.7,3.4,30.40,ESE,116,0.0,0.0,90,0.00,-SN,,0.00,0.0,WeatherDisplay:10.37,2014-02-04 10:02:00,
2014-02-04 05:07:00,5.8,3.5,30.40,ESE,116,0.0,0.0,90,0.00,-SN,,0.00,0.0,WeatherDisplay:10.37,2014-02-04 10:07:00,
2014-02-04 05:12:00,6.0,3.7,30.41,ESE,116,0.0,0.0,90,0.00,-SN,,0.00,0.0,WeatherDisplay:10.37,2014-02-04 10:12:00,
2014-02-04 05:17:00,6.2,3.9,30.41,ESE,116,0.0,0.0,90,0.00,-SN,,0.00,0.0,WeatherDisplay:10.37,2014-02-04 10:17:00,
2014-02-04 05:22:00,6.3,4.0,30.41,ESE,116,0.0,0.0,90,0.00,-SN,,0.00,0.0,WeatherDisplay:10.37,2014-02-04 10:22:00,
2014-02-04 05:27:00,6.5,4.2,30.41,ESE,116,0.0,0.0,90,0.00,-SN,,0.00,0.0,WeatherDisplay:10.37,2014-02-04 10:27:00,
2014-02-04 05:32:00,6.6,4.0,30.41,ESE,116,0.0,0.0,89,0.00,-SN,,0.00,0.0,WeatherDisplay:10.37,2014-02-04 10:32:00,
2014-02-04 05:38:00,6.7,4.1,30.41,ESE,116,0.0,0.0,89,0.00,-SN,,0.00,0.0,WeatherDisplay:10.37,2014-02-04 10:38:00,
2014-02-04 05:43:00,6.7,4.1,30.41,ESE,116,0.0,0.0,89,0.00,-SN,,0.00,0.0,WeatherDisplay:10.37,2014-02-04 10:43:00,
2014-02-04 05:48:00,6.7,4.1,30.41,ESE,116,0.0,0.0,89,0.00,-SN,,0.00,0.0,WeatherDisplay:10.37,2014-02-04 10:48:00,
2014-02-04 05:53:00,6.7,3.9,30.41,ESE,116,0.0,0.0,88,0.00,-SN,,0.00,0.0,WeatherDisplay:10.37,2014-02-04 10:53:00,
2014-02-04 05:58:00,6.6,3.8,30.41,ESE,116,0.0,0.0,88,0.00,-SN,,0.00,0.0,WeatherDisplay:10.37,2014-02-04 10:58:00,
2014-02-04 06:03:00,6.5,3.7,30.40,ESE,116,0.0,0.0,88,0.00,-SN,,0.00,0.0,WeatherDisplay:10.37,2014-02-04 11:03:00,
2014-02-04 06:08:00,6.4,3.6,30.41,ESE,116,0.0,0.0,88,0.00,-SN,,0.00,0.0,WeatherDisplay:10.37,2014-02-04 11:08:00,
2014-02-04 06:13:00,6.2,3.2,30.41,ESE,116,0.0,0.0,87,0.00,-SN,,0.00,0.0,WeatherDisplay:10.37,2014-02-04 11:13:00,
2014-02-04 06:18:00,6.1,3.1,30.41,ESE,116,0.0,0.0,87,0.00,-SN,,0.00,0.0,WeatherDisplay:10.37,2014-02-04 11:18:00,
2014-02-04 06:23:00,6.0,3.0,30.41,ESE,116,0.0,0.0,87,0.00,-SN,,0.00,0.0,WeatherDisplay:10.37,2014-02-04 11:23:00,
2014-02-04 06:28:00,5.9,2.9,30.42,ESE,116,0.0,0.0,87,0.00,-SN,,0.00,0.0,WeatherDisplay:10.37,2014-02-04 11:28:00,
2014-02-04 06:33:00,5.8,2.8,30.41,ESE,116,0.0,0.0,87,0.00,-SN,,0.00,0.0,WeatherDisplay:10.37,2014-02-04 11:33:00,
2014-02-04 06:38:00,5.7,2.7,30.41,ESE,116,0.0,0.0,87,0.00,-SN,,0.00,0.0,WeatherDisplay:10.37,2014-02-04 11:38:00,
2014-02-04 06:43:00,5.5,2.2,30.42,ESE,116,0.0,0.0,86,0.00,-SN,,0.00,0.0,WeatherDisplay:10.37,2014-02-04 11:43:00,
2014-02-04 06:48:00,5.3,2.0,30.42,ESE,116,0.0,0.0,86,0.00,-SN,,0.00,0.0,WeatherDisplay:10.37,2014-02-04 11:48:00,
2014-02-04 06:53:00,5.3,2.0,30.42,ESE,116,0.0,0.0,86,0.00,-SN,,0.00,0.0,WeatherDisplay:10.37,2014-02-04 11:53:00,
2014-02-04 06:58:00,5.3,2.0,30.42,ESE,116,0.0,0.0,86,0.00,-SN,,0.00,0.0,WeatherDisplay:10.37,2014-02-04 11:58:00,
2014-02-04 07:03:00,5.3,2.0,30.42,ESE,116,0.0,0.0,86,0.00,-SN,,0.00,0.0,WeatherDisplay:10.37,2014-02-04 12:03:00,
2014-02-04 07:08:00,5.3,2.3,30.42,ESE,116,0.0,0.0,87,0.00,-SN,,0.00,0.0,WeatherDisplay:10.37,2014-02-04 12:08:00,
2014-02-04 07:13:00,5.3,2.3,30.43,ESE,116,0.0,0.0,87,0.00,-SN,,0.00,0.0,WeatherDisplay:10.37,2014-02-04 12:13:00,
2014-02-04 07:18:00,5.4,2.4,30.43,ESE,116,1.0,1.0,87,0.00,-SN,,0.00,7.0,WeatherDisplay:10.37,2014-02-04 12:18:00,
2014-02-04 07:23:00,5.6,2.8,30.43,ESE,116,2.3,2.3,88,0.00,-SN,,0.00,9.0,WeatherDisplay:10.37,2014-02-04 12:23:00,
2014-02-04 07:28:00,6.0,3.5,30.43,ESE,116,2.3,2.3,89,0.00,-SN,,0.00,14.0,WeatherDisplay:10.37,2014-02-04 12:28:00,
2014-02-04 07:33:00,6.8,4.5,30.43,ESE,117,2.3,2.3,90,0.00,-SN,,0.00,14.0,WeatherDisplay:10.37,2014-02-04 12:33:00,
2014-02-04 07:38:00,8.0,5.9,30.43,SW,221,3.5,3.5,91,0.00,-SN,,0.00,26.0,WeatherDisplay:10.37,2014-02-04 12:38:00,
2014-02-04 07:43:00,8.9,6.8,30.43,SW,221,2.3,2.3,91,0.00,-SN,,0.00,32.0,WeatherDisplay:10.37,2014-02-04 12:43:00,
2014-02-04 07:48:00,9.6,7.5,30.43,SSW,200,3.5,3.5,91,0.00,-SN,,0.00,40.0,WeatherDisplay:10.37,2014-02-04 12:48:00,
2014-02-04 07:53:00,10.1,8.0,30.43,SSW,202,3.5,3.5,91,0.00,-SN,,0.00,40.0,WeatherDisplay:10.37,2014-02-04 12:53:00,
2014-02-04 07:58:00,10.5,8.4,30.43,SSW,202,2.0,2.0,91,0.00,-SN,,0.00,39.0,WeatherDisplay:10.37,2014-02-04 12:58:00,
2014-02-04 08:03:00,10.9,8.8,30.43,SSW,203,3.5,3.5,91,0.00,-SN,,0.00,53.0,WeatherDisplay:10.37,2014-02-04 13:03:00,
2014-02-04 08:08:00,11.4,9.3,30.43,SSW,205,3.5,3.5,91,0.00,-SN,,0.00,58.0,WeatherDisplay:10.37,2014-02-04 13:08:00,
2014-02-04 08:13:00,11.6,9.2,30.44,SW,219,3.5,3.5,90,0.00,-SN,,0.00,60.0,WeatherDisplay:10.37,2014-02-04 13:13:00,
2014-02-04 08:18:00,11.9,9.5,30.44,SSW,207,3.0,3.0,90,0.00,-SN,,0.00,62.0,WeatherDisplay:10.37,2014-02-04 13:18:00,
2014-02-04 08:23:00,12.0,9.6,30.44,SSW,211,4.0,4.0,90,0.00,-SN,,0.00,63.0,WeatherDisplay:10.37,2014-02-04 13:23:00,
2014-02-04 08:28:00,12.1,9.5,30.44,SSW,211,3.5,3.5,89,0.00,-SN,,0.00,65.0,WeatherDisplay:10.37,2014-02-04 13:28:00,
2014-02-04 08:33:00,12.2,9.6,30.44,SW,217,3.5,3.5,89,0.00,-SN,,0.00,67.0,WeatherDisplay:10.37,2014-02-04 13:33:00,
2014-02-04 08:38:00,12.3,9.7,30.45,SSW,202,3.5,3.5,89,0.00,-SN,,0.00,79.0,WeatherDisplay:10.37,2014-02-04 13:38:00,
2014-02-04 08:43:00,12.4,9.8,30.45,SW,216,3.5,3.5,89,0.00,-SN,,0.00,86.0,WeatherDisplay:10.37,2014-02-04 13:43:00,
2014-02-04 08:48:00,12.6,9.7,30.45,SW,214,1.2,1.2,88,0.00,BKN,,0.00,116.0,WeatherDisplay:10.37,2014-02-04 13:48:00,
2014-02-04 08:53:00,12.9,10.0,30.46,South,184,5.0,5.0,88,0.00,BKN,,0.00,141.0,WeatherDisplay:10.37,2014-02-04 13:53:00,
2014-02-04 08:58:00,13.1,10.0,30.46,South,185,4.0,4.0,87,0.00,BKN,,0.00,149.0,WeatherDisplay:10.37,2014-02-04 13:58:00,
2014-02-04 09:03:00,13.4,10.3,30.46,South,185,3.5,3.5,87,0.00,BKN,,0.00,163.0,WeatherDisplay:10.37,2014-02-04 14:03:00,
2014-02-04 09:08:00,13.8,10.4,30.46,SW,214,2.3,2.3,86,0.00,BKN,,0.00,137.0,WeatherDisplay:10.37,2014-02-04 14:08:00,
2014-02-04 09:13:00,14.1,10.4,30.46,SW,214,3.5,3.5,85,0.00,BKN,,0.00,155.0,WeatherDisplay:10.37,2014-02-04 14:13:00,
2014-02-04 09:18:00,14.3,10.6,30.47,SSW,203,3.5,3.5,85,0.00,BKN,,0.00,156.0,WeatherDisplay:10.37,2014-02-04 14:18:00,
2014-02-04 09:23:00,14.6,10.9,30.47,SSW,194,3.5,3.5,85,0.00,BKN,,0.00,211.0,WeatherDisplay:10.37,2014-02-04 14:23:00,
2014-02-04 09:28:00,15.0,13.1,30.47,SSW,197,3.5,3.5,92,0.00,BKN,,0.00,141.0,WeatherDisplay:10.37,2014-02-04 14:28:00,
2014-02-04 09:33:00,15.2,11.0,30.47,SSW,198,3.5,3.5,83,0.00,BKN,,0.00,178.0,WeatherDisplay:10.37,2014-02-04 14:33:00,
2014-02-04 09:38:00,15.3,10.8,30.47,SSW,198,3.5,3.5,82,0.00,BKN,,0.00,200.0,WeatherDisplay:10.37,2014-02-04 14:38:00,
2014-02-04 09:43:00,15.6,11.1,30.47,South,181,3.5,3.5,82,0.00,BKN,,0.00,236.0,WeatherDisplay:10.37,2014-02-04 14:43:00,
2014-02-04 09:44:00,15.7,11.2,30.47,South,181,3.5,3.5,82,0.00,BKN,,0.00,216.0,WeatherDisplay:10.37,2014-02-04 14:44:00,
2014-02-04 09:49:00,15.9,11.1,30.47,South,181,3.5,3.5,81,0.00,BKN,,0.00,253.0,WeatherDisplay:10.37,2014-02-04 14:49:00,
2014-02-04 09:54:00,16.2,11.1,30.47,SSW,201,4.6,4.6,80,0.00,BKN,,0.00,288.0,WeatherDisplay:10.37,2014-02-04 14:54:00,
2014-02-04 09:59:00,16.6,11.5,30.48,West,263,6.0,6.0,80,0.00,BKN,,0.00,403.0,WeatherDisplay:10.37,2014-02-04 14:59:00,
2014-02-04 10:04:00,17.1,11.7,30.47,WSW,239,8.1,8.1,79,0.00,BKN,,0.00,415.0,WeatherDisplay:10.37,2014-02-04 15:04:00,
2014-02-04 10:09:00,17.3,11.3,30.47,West,267,6.9,6.9,77,0.00,BKN,,0.00,366.0,WeatherDisplay:10.37,2014-02-04 15:09:00,
2014-02-04 10:14:00,17.4,11.4,30.47,WSW,250,6.9,6.9,77,0.00,BKN,,0.00,376.0,WeatherDisplay:10.37,2014-02-04 15:14:00,
2014-02-04 10:19:00,17.4,11.1,30.47,WSW,252,11.5,11.5,76,0.00,BKN,,0.00,410.0,WeatherDisplay:10.37,2014-02-04 15:19:00,
2014-02-04 10:24:00,17.6,11.0,30.48,West,263,6.9,6.9,75,0.00,BKN,,0.00,411.0,WeatherDisplay:10.37,2014-02-04 15:24:00,
2014-02-04 10:29:00,17.9,11.6,30.48,WSW,249,6.9,6.9,76,0.00,BKN,,0.00,462.0,WeatherDisplay:10.37,2014-02-04 15:29:00,
2014-02-04 10:34:00,18.1,11.5,30.47,SSW,202,5.8,5.8,75,0.00,BKN,,0.00,454.0,WeatherDisplay:10.37,2014-02-04 15:34:00,
2014-02-04 10:39:00,18.4,11.5,30.47,WSW,254,5.0,5.0,74,0.00,BKN,,0.00,450.0,WeatherDisplay:10.37,2014-02-04 15:39:00,
2014-02-04 10:44:00,18.7,11.8,30.47,SW,229,5.8,5.8,74,0.00,BKN,,0.00,476.0,WeatherDisplay:10.37,2014-02-04 15:44:00,
2014-02-04 10:49:00,19.0,11.8,30.47,West,279,9.2,9.2,73,0.00,BKN,,0.00,418.0,WeatherDisplay:10.37,2014-02-04 15:49:00,
2014-02-04 10:54:00,19.0,11.8,30.47,WSW,252,6.9,6.9,73,0.00,BKN,,0.00,480.0,WeatherDisplay:10.37,2014-02-04 15:54:00,
2014-02-04 10:59:00,19.2,12.0,30.47,WSW,258,8.1,8.1,73,0.00,BKN,,0.00,531.0,WeatherDisplay:10.37,2014-02-04 15:59:00,
2014-02-04 11:04:00,19.5,12.3,30.48,SW,221,6.9,6.9,73,0.00,BKN,,0.00,436.0,WeatherDisplay:10.37,2014-02-04 16:04:00,
2014-02-04 11:09:00,19.6,11.7,30.47,SW,225,3.5,3.5,71,0.00,BKN,,0.00,527.0,WeatherDisplay:10.37,2014-02-04 16:09:00,
2014-02-04 11:14:00,19.8,11.9,30.47,WSW,238,9.2,9.2,71,0.00,BKN,,0.00,524.0,WeatherDisplay:10.37,2014-02-04 16:14:00,
2014-02-04 11:19:00,20.1,12.2,30.47,WSW,253,6.9,6.9,71,0.00,OVC,,0.00,497.0,WeatherDisplay:10.37,2014-02-04 16:19:00,
2014-02-04 11:24:00,20.0,12.1,30.47,West,272,5.8,5.8,71,0.00,OVC,,0.00,455.0,WeatherDisplay:10.37,2014-02-04 16:24:00,
2014-02-04 11:29:00,19.9,11.7,30.47,SW,225,5.8,5.8,70,0.00,OVC,,0.00,431.0,WeatherDisplay:10.37,2014-02-04 16:29:00,
2014-02-04 11:34:00,19.6,11.7,30.47,SSW,200,3.5,3.5,71,0.00,OVC,,0.00,455.0,WeatherDisplay:10.37,2014-02-04 16:34:00,
2014-02-04 11:39:00,19.5,13.2,30.47,SSW,207,4.0,4.0,76,0.00,OVC,,0.00,490.0,WeatherDisplay:10.37,2014-02-04 16:39:00,
2014-02-04 11:44:00,19.9,12.3,30.47,SW,221,3.5,3.5,72,0.00,OVC,,0.00,499.0,WeatherDisplay:10.37,2014-02-04 16:44:00,
2014-02-04 11:49:00,20.0,12.1,30.47,WSW,257,5.8,5.8,71,0.00,OVC,,0.00,480.0,WeatherDisplay:10.37,2014-02-04 16:49:00,
2014-02-04 11:54:00,20.2,11.7,30.47,SSW,213,5.8,5.8,69,0.00,OVC,,0.00,503.0,WeatherDisplay:10.37,2014-02-04 16:54:00,
2014-02-04 11:59:00,20.5,12.3,30.47,SW,223,5.8,5.8,70,0.00,OVC,,0.00,497.0,WeatherDisplay:10.37,2014-02-04 16:59:00,
2014-02-04 12:04:00,20.1,11.2,30.47,West,265,6.9,6.9,68,0.00,OVC,,0.00,482.0,WeatherDisplay:10.37,2014-02-04 17:04:00,
2014-02-04 12:09:00,20.1,11.6,30.46,SSW,209,6.9,6.9,69,0.00,OVC,,0.00,471.0,WeatherDisplay:10.37,2014-02-04 17:09:00,
2014-02-04 12:14:00,20.2,11.7,30.46,SW,232,5.8,5.8,69,0.00,OVC,,0.00,438.0,WeatherDisplay:10.37,2014-02-04 17:14:00,
2014-02-04 12:19:00,20.4,11.8,30.46,South,175,4.6,4.6,69,0.00,BKN,,0.00,367.0,WeatherDisplay:10.37,2014-02-04 17:19:00,
2014-02-04 12:24:00,20.6,11.7,30.46,SSW,213,6.9,6.9,68,0.00,BKN,,0.00,387.0,WeatherDisplay:10.37,2014-02-04 17:24:00,
2014-02-04 12:29:00,20.5,11.3,30.46,SSW,213,4.6,4.6,67,0.00,BKN,,0.00,420.0,WeatherDisplay:10.37,2014-02-04 17:29:00,
2014-02-04 12:34:00,20.6,11.0,30.46,West,277,6.9,6.9,66,0.00,BKN,,0.00,446.0,WeatherDisplay:10.37,2014-02-04 17:34:00,
2014-02-04 12:39:00,21.0,11.8,30.46,SW,221,4.6,4.6,67,0.00,BKN,,0.00,425.0,WeatherDisplay:10.37,2014-02-04 17:39:00,
2014-02-04 12:44:00,21.2,11.6,30.46,SSW,212,6.9,6.9,66,0.00,BKN,,0.00,446.0,WeatherDisplay:10.37,2014-02-04 17:44:00,
2014-02-04 12:49:00,21.1,11.2,30.46,SW,234,8.1,8.1,65,0.00,BKN,,0.00,454.0,WeatherDisplay:10.37,2014-02-04 17:49:00,
2014-02-04 12:54:00,21.1,11.2,30.46,SW,221,8.1,8.1,65,0.00,BKN,,0.00,464.0,WeatherDisplay:10.37,2014-02-04 17:54:00,
2014-02-04 12:59:00,21.2,11.3,30.45,SW,228,7.0,7.0,65,0.00,BKN,,0.00,462.0,WeatherDisplay:10.37,2014-02-04 17:59:00,
2014-02-04 13:04:00,21.1,10.8,30.45,WSW,244,6.0,6.0,64,0.00,BKN,,0.00,434.0,WeatherDisplay:10.37,2014-02-04 18:04:00,
2014-02-04 13:09:00,21.0,10.7,30.45,SW,232,6.9,6.9,64,0.00,BKN,,0.00,485.0,WeatherDisplay:10.37,2014-02-04 18:09:00,
2014-02-04 13:14:00,21.5,11.2,30.45,SW,215,9.2,9.2,64,0.00,BKN,,0.00,450.0,WeatherDisplay:10.37,2014-02-04 18:14:00,
2014-02-04 13:19:00,21.4,10.7,30.45,SW,217,6.9,6.9,63,0.00,BKN,,0.00,413.0,WeatherDisplay:10.37,2014-02-04 18:19:00,
2014-02-04 13:24:00,21.5,10.8,30.45,West,275,10.0,10.0,63,0.00,BKN,,0.00,204.0,WeatherDisplay:10.37,2014-02-04 18:24:00,
2014-02-04 13:29:00,21.7,11.7,30.45,SW,233,5.0,5.0,65,0.00,BKN,,0.00,262.0,WeatherDisplay:10.37,2014-02-04 18:29:00,
2014-02-04 13:34:00,22.1,11.4,30.45,SW,227,9.2,9.2,63,0.00,BKN,,0.00,183.0,WeatherDisplay:10.37,2014-02-04 18:34:00,
2014-02-04 13:39:00,22.0,11.7,30.45,SSW,194,7.0,7.0,64,0.00,BKN,,0.00,127.0,WeatherDisplay:10.37,2014-02-04 18:39:00,
2014-02-04 13:44:00,21.7,11.0,30.45,SW,221,6.9,6.9,63,0.00,BKN,,0.00,158.0,WeatherDisplay:10.37,2014-02-04 18:44:00,
2014-02-04 13:46:00,21.7,11.0,30.45,South,186,11.0,11.0,63,0.00,BKN,,0.00,153.0,WeatherDisplay:10.37,2014-02-04 18:46:00,
2014-02-04 13:51:00,21.3,10.7,30.45,SSW,194,10.4,10.4,63,0.00,BKN,,0.00,151.0,WeatherDisplay:10.37,2014-02-04 18:51:00,
2014-02-04 13:56:00,21.0,10.7,30.45,SW,225,9.2,9.2,64,0.00,BKN,,0.00,165.0,WeatherDisplay:10.37,2014-02-04 18:56:00,
2014-02-04 14:01:00,21.2,10.9,30.44,South,191,6.0,6.0,64,0.00,BKN,,0.00,190.0,WeatherDisplay:10.37,2014-02-04 19:01:00,
2014-02-04 14:06:00,21.2,11.3,30.44,South,175,4.6,4.6,65,0.00,BKN,,0.00,220.0,WeatherDisplay:10.37,2014-02-04 19:06:00,
2014-02-04 14:11:00,21.0,10.4,30.43,SSW,204,6.9,6.9,63,0.00,BKN,,0.00,218.0,WeatherDisplay:10.37,2014-02-04 19:11:00,
2014-02-04 14:16:00,20.7,10.8,30.43,SSW,204,6.9,6.9,65,0.00,BKN,,0.00,237.0,WeatherDisplay:10.37,2014-02-04 19:16:00,
2014-02-04 14:21:00,20.8,10.9,30.43,South,182,4.6,4.6,65,0.00,BKN,,0.00,243.0,WeatherDisplay:10.37,2014-02-04 19:21:00,
2014-02-04 14:26:00,20.8,10.9,30.43,SSW,205,5.8,5.8,65,0.00,BKN,,0.00,295.0,WeatherDisplay:10.37,2014-02-04 19:26:00,
2014-02-04 14:31:00,21.1,11.5,30.42,SSW,213,4.6,4.6,66,0.00,BKN,,0.00,250.0,WeatherDisplay:10.37,2014-02-04 19:31:00,
2014-02-04 14:36:00,21.2,11.3,30.42,SSW,211,8.1,8.1,65,0.00,BKN,,0.00,262.0,WeatherDisplay:10.37,2014-02-04 19:36:00,
2014-02-04 14:41:00,21.3,11.7,30.42,SSW,207,3.5,3.5,66,0.00,BKN,,0.00,294.0,WeatherDisplay:10.37,2014-02-04 19:41:00,
2014-02-04 14:46:00,21.3,11.4,30.42,SSW,203,5.0,5.0,65,0.00,BKN,,0.00,230.0,WeatherDisplay:10.37,2014-02-04 19:46:00,
2014-02-04 14:51:00,21.5,11.5,30.42,SW,217,6.0,6.0,65,0.00,BKN,,0.00,251.0,WeatherDisplay:10.37,2014-02-04 19:51:00,
2014-02-04 14:56:00,21.7,11.7,30.42,SSW,202,3.5,3.5,65,0.00,BKN,,0.00,304.0,WeatherDisplay:10.37,2014-02-04 19:56:00,
2014-02-04 15:01:00,21.7,11.7,30.42,SW,218,3.5,3.5,65,0.00,BKN,,0.00,181.0,WeatherDisplay:10.37,2014-02-04 20:01:00,
2014-02-04 15:06:00,21.6,10.9,30.42,SSW,197,5.8,5.8,63,0.00,BKN,,0.00,77.0,WeatherDisplay:10.37,2014-02-04 20:06:00,
2014-02-04 15:11:00,21.4,11.1,30.41,WNW,292,3.5,3.5,64,0.00,BKN,,0.00,84.0,WeatherDisplay:10.37,2014-02-04 20:11:00,
2014-02-04 15:16:00,21.5,10.8,30.40,SW,227,9.2,9.2,63,0.00,BKN,,0.00,84.0,WeatherDisplay:10.37,2014-02-04 20:16:00,
2014-02-04 15:21:00,21.1,10.8,30.40,SW,227,5.0,5.0,64,0.00,BKN,,0.00,102.0,WeatherDisplay:10.37,2014-02-04 20:21:00,
2014-02-04 15:26:00,21.1,11.2,30.40,SW,227,10.4,10.4,65,0.00,BKN,,0.00,93.0,WeatherDisplay:10.37,2014-02-04 20:26:00,
2014-02-04 15:31:00,21.0,11.1,30.40,West,264,10.4,10.4,65,0.00,BKN,,0.00,160.0,WeatherDisplay:10.37,2014-02-04 20:31:00,
2014-02-04 15:36:00,21.0,11.1,30.42,SW,227,6.9,6.9,65,0.00,BKN,,0.00,81.0,WeatherDisplay:10.37,2014-02-04 20:36:00,
2014-02-04 15:41:00,20.9,11.0,30.42,WSW,256,6.9,6.9,65,0.00,BKN,,0.00,70.0,WeatherDisplay:10.37,2014-02-04 20:41:00,
2014-02-04 15:46:00,20.7,10.8,30.43,WSW,243,8.1,8.1,65,0.00,BKN,,0.00,91.0,WeatherDisplay:10.37,2014-02-04 20:46:00,
2014-02-04 15:51:00,20.6,10.7,30.43,West,267,11.5,11.5,65,0.00,BKN,,0.00,114.0,WeatherDisplay:10.37,2014-02-04 20:51:00,
2014-02-04 15:56:00,20.6,10.7,30.43,SW,222,5.8,5.8,65,0.00,BKN,,0.00,137.0,WeatherDisplay:10.37,2014-02-04 20:56:00,
2014-02-04 16:01:00,20.7,10.8,30.43,WSW,237,6.9,6.9,65,0.00,BKN,,0.00,148.0,WeatherDisplay:10.37,2014-02-04 21:01:00,
2014-02-04 16:06:00,20.8,10.9,30.43,SSW,209,10.4,10.4,65,0.00,BKN,,0.00,100.0,WeatherDisplay:10.37,2014-02-04 21:06:00,
2014-02-04 16:11:00,20.8,11.2,30.43,WSW,254,4.0,4.0,66,0.00,BKN,,0.00,105.0,WeatherDisplay:10.37,2014-02-04 21:11:00,
2014-02-04 16:16:00,20.7,11.1,30.43,West,275,3.5,3.5,66,0.00,BKN,,0.00,86.0,WeatherDisplay:10.37,2014-02-04 21:16:00,
2014-02-04 16:21:00,20.5,10.9,30.43,SW,229,10.4,10.4,66,0.00,BKN,,0.00,62.0,WeatherDisplay:10.37,2014-02-04 21:21:00,
2014-02-04 16:26:00,20.3,10.7,30.43,West,274,11.5,11.5,66,0.00,BKN,,0.00,58.0,WeatherDisplay:10.37,2014-02-04 21:26:00,
2014-02-04 16:31:00,20.2,11.0,30.43,West,274,6.9,6.9,67,0.00,BKN,,0.00,47.0,WeatherDisplay:10.37,2014-02-04 21:31:00,
2014-02-04 16:36:00,20.1,10.9,30.43,WSW,245,8.1,8.1,67,0.00,BKN,,0.00,40.0,WeatherDisplay:10.37,2014-02-04 21:36:00,
2014-02-04 16:41:00,20.0,10.8,30.43,WNW,284,8.1,8.1,67,0.00,BKN,,0.00,33.0,WeatherDisplay:10.37,2014-02-04 21:41:00,
2014-02-04 16:46:00,20.0,11.1,30.43,West,271,3.5,3.5,68,0.00,BKN,,0.00,26.0,WeatherDisplay:10.37,2014-02-04 21:46:00,
2014-02-04 16:51:00,19.9,11.0,30.42,West,271,4.6,4.6,68,0.00,BKN,,0.00,21.0,WeatherDisplay:10.37,2014-02-04 21:51:00,
2014-02-04 16:56:00,19.8,10.6,30.42,West,281,10.4,10.4,67,0.00,BKN,,0.00,11.0,WeatherDisplay:10.37,2014-02-04 21:56:00,
2014-02-04 17:01:00,19.7,10.8,30.42,WSW,257,4.6,4.6,68,0.00,BKN,,0.00,5.0,WeatherDisplay:10.37,2014-02-04 22:01:00,
2014-02-04 17:06:00,19.6,10.7,30.42,West,261,5.8,5.8,68,0.00,BKN,,0.00,0.0,WeatherDisplay:10.37,2014-02-04 22:06:00,
2014-02-04 17:11:00,19.5,11.0,30.41,West,269,4.6,4.6,69,0.00,BKN,,0.00,0.0,WeatherDisplay:10.37,2014-02-04 22:11:00,
2014-02-04 17:16:00,19.3,10.8,30.41,West,277,4.0,4.0,69,0.00,BKN,,0.00,0.0,WeatherDisplay:10.37,2014-02-04 22:16:00,
2014-02-04 17:21:00,19.2,10.7,30.42,WNW,282,4.6,4.6,69,0.00,BKN,,0.00,0.0,WeatherDisplay:10.37,2014-02-04 22:21:00,
2014-02-04 17:26:00,19.0,10.5,30.42,West,281,2.3,2.3,69,0.00,BKN,,0.00,0.0,WeatherDisplay:10.37,2014-02-04 22:26:00,
2014-02-04 17:31:00,18.9,10.7,30.42,West,281,2.3,2.3,70,0.00,BKN,,0.00,0.0,WeatherDisplay:10.37,2014-02-04 22:31:00,
2014-02-04 17:36:00,18.7,10.9,30.42,West,281,3.5,3.5,71,0.00,BKN,,0.00,0.0,WeatherDisplay:10.37,2014-02-04 22:36:00,
2014-02-04 17:41:00,18.6,10.8,30.42,West,281,2.3,2.3,71,0.00,BKN,,0.00,0.0,WeatherDisplay:10.37,2014-02-04 22:41:00,
2014-02-04 17:46:00,18.4,10.9,30.43,West,281,1.2,0.0,72,0.00,BKN,,0.00,0.0,WeatherDisplay:10.37,2014-02-04 22:46:00,
2014-02-04 17:51:00,18.3,10.8,30.43,West,281,0.0,0.0,72,0.00,BKN,,0.00,0.0,WeatherDisplay:10.37,2014-02-04 22:51:00,
2014-02-04 17:56:00,18.1,10.6,30.43,West,281,0.0,0.0,72,0.00,BKN,,0.00,0.0,WeatherDisplay:10.37,2014-02-04 22:56:00,
2014-02-04 18:01:00,17.9,10.4,30.43,West,281,1.2,0.0,72,0.00,BKN,,0.00,0.0,WeatherDisplay:10.37,2014-02-04 23:01:00,
2014-02-04 18:06:00,17.7,10.5,30.43,West,281,0.0,0.0,73,0.00,BKN,,0.00,0.0,WeatherDisplay:10.37,2014-02-04 23:06:00,
2014-02-04 18:11:00,17.5,10.3,30.43,West,281,0.0,0.0,73,0.00,BKN,,0.00,0.0,WeatherDisplay:10.37,2014-02-04 23:11:00,
2014-02-04 18:16:00,17.3,10.4,30.43,West,281,0.0,0.0,74,0.00,BKN,,0.00,0.0,WeatherDisplay:10.37,2014-02-04 23:16:00,
2014-02-04 18:21:00,17.1,10.2,30.43,West,281,0.0,0.0,74,0.00,BKN,,0.00,0.0,WeatherDisplay:10.37,2014-02-04 23:21:00,
2014-02-04 18:26:00,16.9,10.0,30.43,West,281,0.0,0.0,74,0.00,BKN,,0.00,0.0,WeatherDisplay:10.37,2014-02-04 23:26:00,
2014-02-04 18:31:00,16.8,9.9,30.43,West,281,2.3,2.3,74,0.00,BKN,,0.00,0.0,WeatherDisplay:10.37,2014-02-04 23:31:00,
2014-02-04 18:36:00,16.6,10.1,30.43,West,281,2.3,2.3,75,0.00,BKN,,0.00,0.0,WeatherDisplay:10.37,2014-02-04 23:36:00,
2014-02-04 18:41:00,16.5,10.0,30.43,West,281,3.5,3.5,75,0.00,BKN,,0.00,0.0,WeatherDisplay:10.37,2014-02-04 23:41:00,
2014-02-04 18:46:00,16.4,10.2,30.43,West,281,1.2,1.2,76,0.00,BKN,,0.00,0.0,WeatherDisplay:10.37,2014-02-04 23:46:00,
2014-02-04 18:51:00,16.2,10.0,30.43,WNW,283,3.5,3.5,76,0.00,BKN,,0.00,0.0,WeatherDisplay:10.37,2014-02-04 23:51:00,
2014-02-04 18:56:00,16.1,9.9,30.42,WNW,282,3.0,3.0,76,0.00,BKN,,0.00,0.0,WeatherDisplay:10.37,2014-02-04 23:56:00,
2014-02-04 19:01:00,16.1,9.9,30.42,WNW,282,1.2,1.2,76,0.00,BKN,,0.00,0.0,WeatherDisplay:10.37,2014-02-05 00:01:00,
2014-02-04 19:06:00,16.0,10.1,30.42,WNW,282,1.2,1.2,77,0.00,BKN,,0.00,0.0,WeatherDisplay:10.37,2014-02-05 00:06:00,
2014-02-04 19:11:00,16.1,10.2,30.42,WNW,282,2.3,2.3,77,0.00,BKN,,0.00,0.0,WeatherDisplay:10.37,2014-02-05 00:11:00,
2014-02-04 19:16:00,16.1,10.2,30.42,WNW,282,2.3,2.3,77,0.00,OVC,,0.00,0.0,WeatherDisplay:10.37,2014-02-05 00:16:00,
2014-02-04 19:21:00,16.0,10.1,30.42,WNW,282,0.0,0.0,77,0.00,OVC,,0.00,0.0,WeatherDisplay:10.37,2014-02-05 00:21:00,
2014-02-04 19:26:00,16.0,10.1,30.42,WNW,282,2.3,2.3,77,0.00,OVC,,0.00,0.0,WeatherDisplay:10.37,2014-02-05 00:26:00,
2014-02-04 19:31:00,16.0,10.1,30.41,WNW,282,1.2,0.0,77,0.00,OVC,,0.00,0.0,WeatherDisplay:10.37,2014-02-05 00:31:00,
2014-02-04 19:36:00,16.0,10.3,30.42,WNW,282,0.0,0.0,78,0.00,OVC,,0.00,0.0,WeatherDisplay:10.37,2014-02-05 00:36:00,
2014-02-04 19:41:00,16.0,10.3,30.42,WNW,282,0.0,0.0,78,0.00,OVC,,0.00,0.0,WeatherDisplay:10.37,2014-02-05 00:41:00,
2014-02-04 19:46:00,16.0,10.3,30.42,WNW,282,0.0,0.0,78,0.00,OVC,,0.00,0.0,WeatherDisplay:10.37,2014-02-05 00:46:00,
2014-02-04 19:51:00,16.0,10.3,30.42,WNW,282,0.0,0.0,78,0.00,OVC,,0.00,0.0,WeatherDisplay:10.37,2014-02-05 00:51:00,
2014-02-04 19:56:00,15.7,9.8,30.42,WNW,282,0.0,0.0,77,0.00,OVC,,0.00,0.0,WeatherDisplay:10.37,2014-02-05 00:56:00,
2014-02-04 20:01:00,15.4,8.9,30.42,WNW,282,0.0,0.0,75,0.00,OVC,,0.00,0.0,WeatherDisplay:10.37,2014-02-05 01:01:00,
2014-02-04 20:06:00,15.1,8.9,30.42,WNW,282,0.0,0.0,76,0.00,OVC,,0.00,0.0,WeatherDisplay:10.37,2014-02-05 01:06:00,
2014-02-04 20:11:00,14.9,8.7,30.42,WNW,282,0.0,0.0,76,0.00,OVC,,0.00,0.0,WeatherDisplay:10.37,2014-02-05 01:11:00,
2014-02-04 20:16:00,14.7,8.5,30.42,WNW,282,0.0,0.0,76,0.00,OVC,,0.00,0.0,WeatherDisplay:10.37,2014-02-05 01:16:00,
2014-02-04 20:21:00,14.5,8.3,30.43,WNW,282,0.0,0.0,76,0.00,OVC,,0.00,0.0,WeatherDisplay:10.37,2014-02-05 01:21:00,
2014-02-04 20:26:00,14.3,8.1,30.43,WNW,282,0.0,0.0,76,0.00,OVC,,0.00,0.0,WeatherDisplay:10.37,2014-02-05 01:26:00,
2014-02-04 20:31:00,14.2,8.3,30.42,WNW,282,0.0,0.0,77,0.00,OVC,,0.00,0.0,WeatherDisplay:10.37,2014-02-05 01:31:00,
2014-02-04 20:36:00,14.1,8.2,30.42,WNW,282,0.0,0.0,77,0.00,OVC,,0.00,0.0,WeatherDisplay:10.37,2014-02-05 01:36:00,
2014-02-04 20:41:00,13.9,8.3,30.42,WNW,282,0.0,0.0,78,0.00,OVC,,0.00,0.0,WeatherDisplay:10.37,2014-02-05 01:41:00,
2014-02-04 20:46:00,13.8,8.2,30.42,WNW,282,0.0,0.0,78,0.00,OVC,,0.00,0.0,WeatherDisplay:10.37,2014-02-05 01:46:00,
2014-02-04 20:51:00,13.8,8.2,30.42,WNW,282,0.0,0.0,78,0.00,OVC,,0.00,0.0,WeatherDisplay:10.37,2014-02-05 01:51:00,
2014-02-04 20:56:00,13.7,8.4,30.42,WNW,282,0.0,0.0,79,0.00,OVC,,0.00,0.0,WeatherDisplay:10.37,2014-02-05 01:56:00,
2014-02-04 21:01:00,13.7,8.4,30.42,WNW,282,0.0,0.0,79,0.00,OVC,,0.00,0.0,WeatherDisplay:10.37,2014-02-05 02:01:00,
2014-02-04 21:06:00,13.7,8.4,30.42,WNW,282,0.0,0.0,79,0.00,OVC,,0.00,0.0,WeatherDisplay:10.37,2014-02-05 02:06:00,
2014-02-04 21:11:00,13.6,8.3,30.42,WNW,282,0.0,0.0,79,0.00,OVC,,0.00,0.0,WeatherDisplay:10.37,2014-02-05 02:11:00,
2014-02-04 21:16:00,13.6,8.6,30.42,WNW,282,0.0,0.0,80,0.00,OVC,,0.00,0.0,WeatherDisplay:10.37,2014-02-05 02:16:00,
2014-02-04 21:21:00,13.6,8.6,30.42,WNW,282,0.0,0.0,80,0.00,OVC,,0.00,0.0,WeatherDisplay:10.37,2014-02-05 02:21:00,
2014-02-04 21:26:00,13.6,8.6,30.42,WNW,282,0.0,0.0,80,0.00,OVC,,0.00,0.0,WeatherDisplay:10.37,2014-02-05 02:26:00,
2014-02-04 21:31:00,13.6,8.6,30.42,WNW,282,0.0,0.0,80,0.00,OVC,,0.00,0.0,WeatherDisplay:10.37,2014-02-05 02:31:00,
2014-02-04 21:36:00,13.6,8.6,30.43,WNW,282,0.0,0.0,80,0.00,OVC,,0.00,0.0,WeatherDisplay:10.37,2014-02-05 02:36:00,
2014-02-04 21:41:00,13.6,8.6,30.43,WNW,282,0.0,0.0,80,0.00,OVC,,0.00,0.0,WeatherDisplay:10.37,2014-02-05 02:41:00,
2014-02-04 21:46:00,13.6,8.6,30.43,WNW,282,0.0,0.0,80,0.00,OVC,,0.00,0.0,WeatherDisplay:10.37,2014-02-05 02:46:00,
2014-02-04 21:51:00,13.6,8.9,30.43,WNW,282,0.0,0.0,81,0.00,OVC,,0.00,0.0,WeatherDisplay:10.37,2014-02-05 02:51:00,
2014-02-04 21:56:00,13.7,9.0,30.43,WNW,282,0.0,0.0,81,0.00,OVC,,0.00,0.0,WeatherDisplay:10.37,2014-02-05 02:56:00,
2014-02-04 22:01:00,13.7,9.2,30.43,WNW,282,0.0,0.0,82,0.00,OVC,,0.00,0.0,WeatherDisplay:10.37,2014-02-05 03:01:00,
2014-02-04 22:06:00,13.8,9.3,30.43,WNW,282,0.0,0.0,82,0.00,OVC,,0.00,0.0,WeatherDisplay:10.37,2014-02-05 03:06:00,
2014-02-04 22:11:00,13.9,9.4,30.43,WNW,282,0.0,0.0,82,0.00,OVC,,0.00,0.0,WeatherDisplay:10.37,2014-02-05 03:11:00,
2014-02-04 22:16:00,13.9,9.4,30.42,WNW,282,0.0,0.0,82,0.00,OVC,,0.00,0.0,WeatherDisplay:10.37,2014-02-05 03:16:00,
2014-02-04 22:21:00,13.9,9.4,30.42,WNW,282,0.0,0.0,82,0.00,OVC,,0.00,0.0,WeatherDisplay:10.37,2014-02-05 03:21:00,
2014-02-04 22:26:00,14.0,9.5,30.41,WNW,282,0.0,0.0,82,0.00,OVC,,0.00,0.0,WeatherDisplay:10.37,2014-02-05 03:26:00,
2014-02-04 22:31:00,14.1,9.6,30.41,WNW,282,0.0,0.0,82,0.00,OVC,,0.00,0.0,WeatherDisplay:10.37,2014-02-05 03:31:00,
2014-02-04 22:36:00,14.1,9.6,30.41,WNW,282,0.0,0.0,82,0.00,OVC,,0.00,0.0,WeatherDisplay:10.37,2014-02-05 03:36:00,
2014-02-04 22:41:00,14.1,9.6,30.41,WNW,282,0.0,0.0,82,0.00,OVC,,0.00,0.0,WeatherDisplay:10.37,2014-02-05 03:41:00,
2014-02-04 22:46:00,14.2,9.7,30.40,WNW,282,0.0,0.0,82,0.00,OVC,,0.00,0.0,WeatherDisplay:10.37,2014-02-05 03:46:00,
2014-02-04 22:51:00,14.2,9.7,30.40,WNW,282,0.0,0.0,82,0.00,OVC,,0.00,0.0,WeatherDisplay:10.37,2014-02-05 03:51:00,
2014-02-04 22:56:00,14.2,9.7,30.40,WNW,282,0.0,0.0,82,0.00,OVC,,0.00,0.0,WeatherDisplay:10.37,2014-02-05 03:56:00,
2014-02-04 23:01:00,14.3,9.8,30.39,WNW,282,0.0,0.0,82,0.00,OVC,,0.00,0.0,WeatherDisplay:10.37,2014-02-05 04:01:00,
2014-02-04 23:06:00,14.3,9.8,30.39,WNW,282,0.0,0.0,82,0.00,OVC,,0.00,0.0,WeatherDisplay:10.37,2014-02-05 04:06:00,
2014-02-04 23:11:00,14.3,9.8,30.38,WNW,282,0.0,0.0,82,0.00,OVC,,0.00,0.0,WeatherDisplay:10.37,2014-02-05 04:11:00,
2014-02-04 23:16:00,14.2,9.4,30.38,WNW,282,0.0,0.0,81,0.00,OVC,,0.00,0.0,WeatherDisplay:10.37,2014-02-05 04:16:00,
2014-02-04 23:21:00,14.2,9.4,30.38,WNW,282,0.0,0.0,81,0.00,OVC,,0.00,0.0,WeatherDisplay:10.37,2014-02-05 04:21:00,
2014-02-04 23:26:00,14.2,9.4,30.38,WNW,282,0.0,0.0,81,0.00,OVC,,0.00,0.0,WeatherDisplay:10.37,2014-02-05 04:26:00,
2014-02-04 23:31:00,14.2,9.4,30.38,WNW,282,0.0,0.0,81,0.00,OVC,,0.00,0.0,WeatherDisplay:10.37,2014-02-05 04:31:00,
2014-02-04 23:36:00,14.2,9.4,30.38,WNW,282,0.0,0.0,81,0.00,OVC,,0.00,0.0,WeatherDisplay:10.37,2014-02-05 04:36:00,
2014-02-04 23:41:00,14.1,9.3,30.37,WNW,282,2.3,2.3,81,0.00,OVC,,0.00,0.0,WeatherDisplay:10.37,2014-02-05 04:41:00,
2014-02-04 23:46:00,14.1,9.3,30.36,WNW,282,0.0,0.0,81,0.00,OVC,,0.00,0.0,WeatherDisplay:10.37,2014-02-05 04:46:00,
2014-02-04 23:51:00,13.9,9.1,30.37,WNW,282,0.0,0.0,81,0.00,OVC,,0.00,0.0,WeatherDisplay:10.37,2014-02-05 04:51:00,
2014-02-04 23:56:00,13.9,9.1,30.36,WNW,282,0.0,0.0,81,0.00,OVC,,0.00,0.0,WeatherDisplay:10.37,2014-02-05 04:56:00,